Погода в Сан-Вито-Ло-Капе

Италия     38°10′14″N   12°44′04″E
темп.,
°C
ветер,
м/с
пор.,
м/с
влажн.,
%
обл.,
%
осадки,
мм/ч
давл.,
гПа
погр.,
м
12 апреля, пн
пн1223:00+15ю127487 0.0 102016
02:00+15з1173100 0.0 102021
05:00+15в1173100 0.0 101917
08:00+15всв1168100 0.0 101917
11:00+16в3361100 0.0 102049
14:00+16ссв1165100 0.0 101933
17:00+16сз337069 0.0 1019233
20:00+16юв237881 0.0 101995
13 апреля, вт
вт1323:00+15юз348143 0.0 1020185
02:00+15зюз8108675 0.1 1019588
05:00+14сз788335 0.1 1019754
08:00+13з89580 0.3 10201136
11:00+14зюз1011590 0.0 10201301
14:00+14з10126110 0.0 10201446
17:00+14з1113640 0.0 10191397
20:00+15зсз1111650 0.0 10191445
14 апреля, ср
ср1423:00+14зсз88590 0.0 10201230
02:00+14сз77600 0.0 10201316
05:00+14ссз88714 0.2 10191074
08:00+14ссз887024 0.3 10201074
11:00+13ссз55657 0.0 10211126
14:00+13ссз44640 0.0 1021842
17:00+13сз446512 0.0 1020804
20:00+13ссз33665 0.0 1020749
15 апреля, чт
чт1523:00+13с11636 0.0 1020549
02:00+13ссв116424 0.0 1019453
05:00+13всв236471 0.0 1018493
08:00+13в4367100 0.0 1018457
11:00+13в2261100 0.0 1019351
14:00+14з2360100 0.0 1019547
17:00+12св1180100 0.8 1018339
20:00+11вюв6689100 3.4 1017345
16 апреля, пт
пт1623:00+12в5584100 0.3 1017343
02:00+12в3286100 1.3 1016287
05:00+13в668897 1.8 1014511
08:00+14в10985100 1.9 1013619
11:00+14в8782100 0.0 1012504
14:00+14в888639 0.4 1009416
17:00+15всв101185100 0.0 1006475
20:00+15всв101089100 0.0 1006348